#datetime,building,power
2024-04-09T00:00:00,axn,29.86
2024-04-09T00:01:00,axn,29.86
2024-04-09T00:02:00,axn,29.83
2024-04-09T00:03:00,axn,30.06
2024-04-09T00:04:00,axn,29.54
2024-04-09T00:05:00,axn,29.65
2024-04-09T00:06:00,axn,29.73
2024-04-09T00:07:00,axn,29.64
2024-04-09T00:08:00,axn,29.59
2024-04-09T00:09:00,axn,29.76
2024-04-09T00:10:00,axn,29.53
2024-04-09T00:11:00,axn,29.52
2024-04-09T00:12:00,axn,29.69
2024-04-09T00:13:00,axn,29.63
2024-04-09T00:14:00,axn,29.57
2024-04-09T00:15:00,axn,29.65
2024-04-09T00:16:00,axn,29.72
2024-04-09T00:17:00,axn,30.24
2024-04-09T00:18:00,axn,29.81
2024-04-09T00:19:00,axn,29.92
2024-04-09T00:20:00,axn,29.30
2024-04-09T00:21:00,axn,29.23
2024-04-09T00:22:00,axn,29.28
2024-04-09T00:23:00,axn,29.52
2024-04-09T00:24:00,axn,29.51
2024-04-09T00:25:00,axn,29.33
2024-04-09T00:26:00,axn,29.56
2024-04-09T00:27:00,axn,29.32
2024-04-09T00:28:00,axn,29.43
2024-04-09T00:29:00,axn,29.32
2024-04-09T00:30:00,axn,29.36
2024-04-09T00:31:00,axn,29.44
2024-04-09T00:32:00,axn,29.40
2024-04-09T00:33:00,axn,29.41
2024-04-09T00:34:00,axn,28.80
2024-04-09T00:35:00,axn,28.87
2024-04-09T00:36:00,axn,28.71
2024-04-09T00:37:00,axn,28.65
2024-04-09T00:38:00,axn,29.33
2024-04-09T00:39:00,axn,28.99
2024-04-09T00:40:00,axn,28.97
2024-04-09T00:41:00,axn,29.31
2024-04-09T00:42:00,axn,29.06
2024-04-09T00:43:00,axn,28.73
2024-04-09T00:44:00,axn,28.84
2024-04-09T00:45:00,axn,29.02
2024-04-09T00:46:00,axn,28.95
2024-04-09T00:47:00,axn,29.31
2024-04-09T00:48:00,axn,28.82
2024-04-09T00:49:00,axn,29.02
2024-04-09T00:50:00,axn,28.85
2024-04-09T00:51:00,axn,28.86
2024-04-09T00:52:00,axn,28.95
2024-04-09T00:53:00,axn,31.47
2024-04-09T00:54:00,axn,31.58
2024-04-09T00:55:00,axn,28.73
2024-04-09T00:56:00,axn,29.10
2024-04-09T00:57:00,axn,28.89
2024-04-09T00:58:00,axn,28.87
2024-04-09T00:59:00,axn,28.15
2024-04-09T01:00:00,axn,30.20
2024-04-09T01:01:00,axn,28.50
2024-04-09T01:02:00,axn,28.36
2024-04-09T01:03:00,axn,28.29
2024-04-09T01:04:00,axn,28.41
2024-04-09T01:05:00,axn,28.17
2024-04-09T01:06:00,axn,28.71
2024-04-09T01:07:00,axn,28.23
2024-04-09T01:08:00,axn,28.39
2024-04-09T01:09:00,axn,28.27
2024-04-09T01:10:00,axn,28.36
2024-04-09T01:11:00,axn,28.71
2024-04-09T01:12:00,axn,28.35
2024-04-09T01:13:00,axn,28.45
2024-04-09T01:14:00,axn,28.33
2024-04-09T01:15:00,axn,29.16
2024-04-09T01:16:00,axn,28.72
2024-04-09T01:17:00,axn,28.65
2024-04-09T01:18:00,axn,28.71
2024-04-09T01:19:00,axn,28.88
2024-04-09T01:20:00,axn,29.93
2024-04-09T01:21:00,axn,29.10
2024-04-09T01:22:00,axn,29.47
2024-04-09T01:23:00,axn,28.66
2024-04-09T01:24:00,axn,29.30
2024-04-09T01:25:00,axn,28.76
2024-04-09T01:26:00,axn,28.91
2024-04-09T01:27:00,axn,28.86
2024-04-09T01:28:00,axn,28.82
2024-04-09T01:29:00,axn,28.79
2024-04-09T01:30:00,axn,28.70
2024-04-09T01:31:00,axn,28.72
2024-04-09T01:32:00,axn,28.62
2024-04-09T01:33:00,axn,28.91
2024-04-09T01:34:00,axn,28.74
2024-04-09T01:35:00,axn,28.50
2024-04-09T01:36:00,axn,28.72
2024-04-09T01:37:00,axn,28.58
2024-04-09T01:38:00,axn,28.78
2024-04-09T01:39:00,axn,28.96
2024-04-09T01:40:00,axn,29.23
2024-04-09T01:41:00,axn,28.87
2024-04-09T01:42:00,axn,28.76
2024-04-09T01:43:00,axn,28.83
2024-04-09T01:44:00,axn,28.94
2024-04-09T01:45:00,axn,29.55
2024-04-09T01:46:00,axn,29.44
2024-04-09T01:47:00,axn,29.31
2024-04-09T01:48:00,axn,29.33
2024-04-09T01:49:00,axn,29.16
2024-04-09T01:50:00,axn,29.26
2024-04-09T01:51:00,axn,29.32
2024-04-09T01:52:00,axn,29.28
2024-04-09T01:53:00,axn,29.23
2024-04-09T01:54:00,axn,29.49
2024-04-09T01:55:00,axn,29.03
2024-04-09T01:56:00,axn,29.32
2024-04-09T01:57:00,axn,29.53
2024-04-09T01:58:00,axn,29.13
2024-04-09T01:59:00,axn,29.32
2024-04-09T02:00:00,axn,29.31
2024-04-09T02:01:00,axn,29.12
2024-04-09T02:02:00,axn,28.99
2024-04-09T02:03:00,axn,29.12
2024-04-09T02:04:00,axn,28.89
2024-04-09T02:05:00,axn,29.26
2024-04-09T02:06:00,axn,29.42
2024-04-09T02:07:00,axn,29.19
2024-04-09T02:08:00,axn,28.87
2024-04-09T02:09:00,axn,28.87
2024-04-09T02:10:00,axn,29.11
2024-04-09T02:11:00,axn,29.15
2024-04-09T02:12:00,axn,29.36
2024-04-09T02:13:00,axn,29.27
2024-04-09T02:14:00,axn,29.02
2024-04-09T02:15:00,axn,28.87
2024-04-09T02:16:00,axn,28.93
2024-04-09T02:17:00,axn,29.28
2024-04-09T02:18:00,axn,28.97
2024-04-09T02:19:00,axn,29.07
2024-04-09T02:20:00,axn,28.98
2024-04-09T02:21:00,axn,29.01
2024-04-09T02:22:00,axn,28.77
2024-04-09T02:23:00,axn,28.69
2024-04-09T02:24:00,axn,28.53
2024-04-09T02:25:00,axn,28.64
2024-04-09T02:26:00,axn,28.56
2024-04-09T02:27:00,axn,28.47
2024-04-09T02:28:00,axn,28.58
2024-04-09T02:29:00,axn,28.44
2024-04-09T02:30:00,axn,28.62
2024-04-09T02:31:00,axn,28.61
2024-04-09T02:32:00,axn,28.89
2024-04-09T02:33:00,axn,28.64
2024-04-09T02:34:00,axn,28.93
2024-04-09T02:35:00,axn,28.39
2024-04-09T02:36:00,axn,28.48
2024-04-09T02:37:00,axn,28.52
2024-04-09T02:38:00,axn,28.70
2024-04-09T02:39:00,axn,28.80
2024-04-09T02:40:00,axn,29.25
2024-04-09T02:41:00,axn,28.73
2024-04-09T02:42:00,axn,28.61
2024-04-09T02:43:00,axn,28.67
2024-04-09T02:44:00,axn,28.54
2024-04-09T02:45:00,axn,28.53
2024-04-09T02:46:00,axn,28.62
2024-04-09T02:47:00,axn,28.41
2024-04-09T02:48:00,axn,28.30
2024-04-09T02:49:00,axn,28.46
2024-04-09T02:50:00,axn,28.52
2024-04-09T02:51:00,axn,28.54
2024-04-09T02:52:00,axn,28.48
2024-04-09T02:53:00,axn,28.39
2024-04-09T02:54:00,axn,28.73
2024-04-09T02:55:00,axn,28.61
2024-04-09T02:56:00,axn,28.25
2024-04-09T02:57:00,axn,28.39
2024-04-09T02:58:00,axn,28.44
2024-04-09T02:59:00,axn,28.58
2024-04-09T03:00:00,axn,28.71
2024-04-09T03:01:00,axn,28.52
2024-04-09T03:02:00,axn,28.62
2024-04-09T03:03:00,axn,29.31
2024-04-09T03:04:00,axn,28.58
2024-04-09T03:05:00,axn,28.74
2024-04-09T03:06:00,axn,28.96
2024-04-09T03:07:00,axn,28.46
2024-04-09T03:08:00,axn,28.25
2024-04-09T03:09:00,axn,28.56
2024-04-09T03:10:00,axn,28.35
2024-04-09T03:11:00,axn,43.44
2024-04-09T03:12:00,axn,43.02
2024-04-09T03:13:00,axn,42.88
2024-04-09T03:14:00,axn,42.76
2024-04-09T03:15:00,axn,42.67
2024-04-09T03:16:00,axn,42.54
2024-04-09T03:17:00,axn,28.56
2024-04-09T03:18:00,axn,28.68
2024-04-09T03:19:00,axn,28.33
2024-04-09T03:20:00,axn,28.76
2024-04-09T03:21:00,axn,28.35
2024-04-09T03:22:00,axn,28.53
2024-04-09T03:23:00,axn,28.95
2024-04-09T03:24:00,axn,28.93
2024-04-09T03:25:00,axn,28.34
2024-04-09T03:26:00,axn,28.32
2024-04-09T03:27:00,axn,28.71
2024-04-09T03:28:00,axn,28.59
2024-04-09T03:29:00,axn,28.45
2024-04-09T03:30:00,axn,28.83
2024-04-09T03:31:00,axn,28.39
2024-04-09T03:32:00,axn,28.59
2024-04-09T03:33:00,axn,28.31
2024-04-09T03:34:00,axn,28.45
2024-04-09T03:35:00,axn,28.63
2024-04-09T03:36:00,axn,28.35
2024-04-09T03:37:00,axn,28.41
2024-04-09T03:38:00,axn,28.29
2024-04-09T03:39:00,axn,29.03
2024-04-09T03:40:00,axn,28.45
2024-04-09T03:41:00,axn,28.85
2024-04-09T03:42:00,axn,28.78
2024-04-09T03:43:00,axn,28.53
2024-04-09T03:44:00,axn,28.60
2024-04-09T03:45:00,axn,28.83
2024-04-09T03:46:00,axn,28.53
2024-04-09T03:47:00,axn,28.34
2024-04-09T03:48:00,axn,28.37
2024-04-09T03:49:00,axn,28.52
2024-04-09T03:50:00,axn,28.80
2024-04-09T03:51:00,axn,28.44
2024-04-09T03:52:00,axn,28.65
2024-04-09T03:53:00,axn,28.46
2024-04-09T03:54:00,axn,28.83
2024-04-09T03:55:00,axn,28.78
2024-04-09T03:56:00,axn,28.63
2024-04-09T03:57:00,axn,28.90
2024-04-09T03:58:00,axn,29.08
2024-04-09T03:59:00,axn,28.84
2024-04-09T04:00:00,axn,29.29
2024-04-09T04:01:00,axn,28.85
2024-04-09T04:02:00,axn,28.72
2024-04-09T04:03:00,axn,28.47
2024-04-09T04:04:00,axn,28.29
2024-04-09T04:05:00,axn,28.78
2024-04-09T04:06:00,axn,28.46
2024-04-09T04:07:00,axn,28.25
2024-04-09T04:08:00,axn,28.37
2024-04-09T04:09:00,axn,28.90
2024-04-09T04:10:00,axn,28.60
2024-04-09T04:11:00,axn,28.19
2024-04-09T04:12:00,axn,28.59
2024-04-09T04:13:00,axn,28.47
2024-04-09T04:14:00,axn,28.53
2024-04-09T04:15:00,axn,28.24
2024-04-09T04:16:00,axn,28.52
2024-04-09T04:17:00,axn,28.46
2024-04-09T04:18:00,axn,28.42
2024-04-09T04:19:00,axn,28.41
2024-04-09T04:20:00,axn,28.39
2024-04-09T04:21:00,axn,28.57
2024-04-09T04:22:00,axn,28.57
2024-04-09T04:23:00,axn,28.74
2024-04-09T04:24:00,axn,28.79
2024-04-09T04:25:00,axn,28.71
2024-04-09T04:26:00,axn,28.79
2024-04-09T04:27:00,axn,28.73
2024-04-09T04:28:00,axn,28.50
2024-04-09T04:29:00,axn,28.71
2024-04-09T04:30:00,axn,28.75
2024-04-09T04:31:00,axn,28.81
2024-04-09T04:32:00,axn,28.66
2024-04-09T04:33:00,axn,28.71
2024-04-09T04:34:00,axn,28.66
2024-04-09T04:35:00,axn,29.04
2024-04-09T04:36:00,axn,28.82
2024-04-09T04:37:00,axn,28.58
2024-04-09T04:38:00,axn,28.70
2024-04-09T04:39:00,axn,28.74
2024-04-09T04:40:00,axn,28.87
2024-04-09T04:41:00,axn,29.19
2024-04-09T04:42:00,axn,29.17
2024-04-09T04:43:00,axn,29.40
2024-04-09T04:44:00,axn,36.26
2024-04-09T04:45:00,axn,35.88
2024-04-09T04:46:00,axn,35.44
2024-04-09T04:47:00,axn,36.11
2024-04-09T04:48:00,axn,30.17
2024-04-09T04:49:00,axn,32.95
2024-04-09T04:50:00,axn,33.13
2024-04-09T04:51:00,axn,30.74
2024-04-09T04:52:00,axn,30.70
2024-04-09T04:53:00,axn,29.90
2024-04-09T04:54:00,axn,40.34
2024-04-09T04:55:00,axn,40.04
2024-04-09T04:56:00,axn,39.93
2024-04-09T04:57:00,axn,39.97
2024-04-09T04:58:00,axn,29.65
2024-04-09T04:59:00,axn,29.57
2024-04-09T05:00:00,axn,29.27
2024-04-09T05:01:00,axn,26.24
2024-04-09T05:02:00,axn,31.27
2024-04-09T05:03:00,axn,48.09
2024-04-09T05:04:00,axn,30.71
2024-04-09T05:05:00,axn,30.92
2024-04-09T05:06:00,axn,30.74
2024-04-09T05:07:00,axn,30.73
2024-04-09T05:08:00,axn,30.90
2024-04-09T05:09:00,axn,30.91
2024-04-09T05:10:00,axn,31.03
2024-04-09T05:11:00,axn,26.30
2024-04-09T05:12:00,axn,26.20
2024-04-09T05:13:00,axn,26.35
2024-04-09T05:14:00,axn,26.26
2024-04-09T05:15:00,axn,26.74
2024-04-09T05:16:00,axn,26.12
2024-04-09T05:17:00,axn,26.39
2024-04-09T05:18:00,axn,26.28
2024-04-09T05:19:00,axn,26.32
2024-04-09T05:20:00,axn,26.37
2024-04-09T05:21:00,axn,26.34
2024-04-09T05:22:00,axn,26.04
2024-04-09T05:23:00,axn,26.26
2024-04-09T05:24:00,axn,26.19
2024-04-09T05:25:00,axn,25.96
2024-04-09T05:26:00,axn,26.08
2024-04-09T05:27:00,axn,26.11
2024-04-09T05:28:00,axn,26.98
2024-04-09T05:29:00,axn,31.25
2024-04-09T05:30:00,axn,31.43
2024-04-09T05:31:00,axn,28.18
2024-04-09T05:32:00,axn,28.23
2024-04-09T05:33:00,axn,28.00
2024-04-09T05:34:00,axn,27.97
2024-04-09T05:35:00,axn,29.66
2024-04-09T05:36:00,axn,29.53
2024-04-09T05:37:00,axn,29.38
2024-04-09T05:38:00,axn,30.06
2024-04-09T05:39:00,axn,29.80
2024-04-09T05:40:00,axn,29.47
2024-04-09T05:41:00,axn,29.41
2024-04-09T05:42:00,axn,29.48
2024-04-09T05:43:00,axn,29.41
2024-04-09T05:44:00,axn,29.33
2024-04-09T05:45:00,axn,29.31
2024-04-09T05:46:00,axn,29.68
2024-04-09T05:47:00,axn,29.18
2024-04-09T05:48:00,axn,29.19
2024-04-09T05:49:00,axn,28.88
2024-04-09T05:50:00,axn,29.35
2024-04-09T05:51:00,axn,29.39
2024-04-09T05:52:00,axn,29.17
2024-04-09T05:53:00,axn,39.79
2024-04-09T05:54:00,axn,29.44
2024-04-09T05:55:00,axn,29.67
2024-04-09T05:56:00,axn,29.30
2024-04-09T05:57:00,axn,29.23
2024-04-09T05:58:00,axn,33.22
2024-04-09T05:59:00,axn,33.29
2024-04-09T06:00:00,axn,28.66
2024-04-09T06:01:00,axn,28.88
2024-04-09T06:02:00,axn,28.87
2024-04-09T06:03:00,axn,29.22
2024-04-09T06:04:00,axn,28.85
2024-04-09T06:05:00,axn,28.91
2024-04-09T06:06:00,axn,28.82
2024-04-09T06:07:00,axn,28.72
2024-04-09T06:08:00,axn,28.67
2024-04-09T06:09:00,axn,28.71
2024-04-09T06:10:00,axn,28.83
2024-04-09T06:11:00,axn,28.69
2024-04-09T06:12:00,axn,28.91
2024-04-09T06:13:00,axn,28.43
2024-04-09T06:14:00,axn,28.40
2024-04-09T06:15:00,axn,28.11
2024-04-09T06:16:00,axn,27.93
2024-04-09T06:17:00,axn,28.17
2024-04-09T06:18:00,axn,27.88
2024-04-09T06:19:00,axn,28.20
2024-04-09T06:20:00,axn,27.71
2024-04-09T06:21:00,axn,27.55
2024-04-09T06:22:00,axn,27.88
2024-04-09T06:23:00,axn,27.49
2024-04-09T06:24:00,axn,27.48
2024-04-09T06:25:00,axn,27.63
2024-04-09T06:26:00,axn,28.02
2024-04-09T06:27:00,axn,27.76
2024-04-09T06:28:00,axn,27.73
2024-04-09T06:29:00,axn,27.80
2024-04-09T06:30:00,axn,27.97
2024-04-09T06:31:00,axn,32.42
2024-04-09T06:32:00,axn,32.69
2024-04-09T06:33:00,axn,28.29
2024-04-09T06:34:00,axn,28.03
2024-04-09T06:35:00,axn,28.58
2024-04-09T06:36:00,axn,28.31
2024-04-09T06:37:00,axn,28.45
2024-04-09T06:38:00,axn,28.28
2024-04-09T06:39:00,axn,28.25
2024-04-09T06:40:00,axn,28.06
2024-04-09T06:41:00,axn,28.63
2024-04-09T06:42:00,axn,28.34
2024-04-09T06:43:00,axn,28.58
2024-04-09T06:44:00,axn,28.23
2024-04-09T06:45:00,axn,28.02
2024-04-09T06:46:00,axn,27.97
2024-04-09T06:47:00,axn,27.99
2024-04-09T06:48:00,axn,28.26
2024-04-09T06:49:00,axn,28.28
2024-04-09T06:50:00,axn,28.21
2024-04-09T06:51:00,axn,28.05
2024-04-09T06:52:00,axn,28.93
2024-04-09T06:53:00,axn,28.78
2024-04-09T06:54:00,axn,28.82
2024-04-09T06:55:00,axn,28.55
2024-04-09T06:56:00,axn,28.52
2024-04-09T06:57:00,axn,28.86
2024-04-09T06:58:00,axn,29.34
2024-04-09T06:59:00,axn,30.16
2024-04-09T07:00:00,axn,31.28
2024-04-09T07:01:00,axn,32.58
2024-04-09T07:02:00,axn,35.67
2024-04-09T07:03:00,axn,33.84
2024-04-09T07:04:00,axn,34.22
2024-04-09T07:05:00,axn,38.66
2024-04-09T07:06:00,axn,39.97
2024-04-09T07:07:00,axn,34.95
2024-04-09T07:08:00,axn,33.86
2024-04-09T07:09:00,axn,35.27
2024-04-09T07:10:00,axn,34.91
2024-04-09T07:11:00,axn,35.15
2024-04-09T07:12:00,axn,36.56
2024-04-09T07:13:00,axn,35.95
2024-04-09T07:14:00,axn,36.53
2024-04-09T07:15:00,axn,35.01
2024-04-09T07:16:00,axn,35.49
2024-04-09T07:17:00,axn,34.76
2024-04-09T07:18:00,axn,35.04
2024-04-09T07:19:00,axn,34.88
2024-04-09T07:20:00,axn,35.20
2024-04-09T07:21:00,axn,34.94
2024-04-09T07:22:00,axn,34.99
2024-04-09T07:23:00,axn,35.77
2024-04-09T07:24:00,axn,34.86
2024-04-09T07:25:00,axn,35.35
2024-04-09T07:26:00,axn,35.36
2024-04-09T07:27:00,axn,35.47
2024-04-09T07:28:00,axn,35.54
2024-04-09T07:29:00,axn,35.34
2024-04-09T07:30:00,axn,35.15
2024-04-09T07:31:00,axn,35.58
2024-04-09T07:32:00,axn,36.19
2024-04-09T07:33:00,axn,35.62
2024-04-09T07:34:00,axn,35.63
2024-04-09T07:35:00,axn,35.23
2024-04-09T07:36:00,axn,35.16
2024-04-09T07:37:00,axn,40.17
2024-04-09T07:38:00,axn,40.07
2024-04-09T07:39:00,axn,35.86
2024-04-09T07:40:00,axn,35.97
2024-04-09T07:41:00,axn,35.83
2024-04-09T07:42:00,axn,35.86
2024-04-09T07:43:00,axn,36.15
2024-04-09T07:44:00,axn,36.28
2024-04-09T07:45:00,axn,36.68
2024-04-09T07:46:00,axn,36.87
2024-04-09T07:47:00,axn,36.45
2024-04-09T07:48:00,axn,36.26
2024-04-09T07:49:00,axn,52.32
2024-04-09T07:50:00,axn,36.49
2024-04-09T07:51:00,axn,37.08
2024-04-09T07:52:00,axn,37.19
2024-04-09T07:53:00,axn,37.27
2024-04-09T07:54:00,axn,36.90
2024-04-09T07:55:00,axn,37.24
2024-04-09T07:56:00,axn,37.27
2024-04-09T07:57:00,axn,37.52
2024-04-09T07:58:00,axn,37.46
2024-04-09T07:59:00,axn,37.16
2024-04-09T08:00:00,axn,37.21
2024-04-09T08:01:00,axn,43.59
2024-04-09T08:02:00,axn,42.76
2024-04-09T08:03:00,axn,43.25
2024-04-09T08:04:00,axn,43.74
2024-04-09T08:05:00,axn,43.10
2024-04-09T08:06:00,axn,43.54
2024-04-09T08:07:00,axn,48.07
2024-04-09T08:08:00,axn,43.23
2024-04-09T08:09:00,axn,43.86
2024-04-09T08:10:00,axn,43.79
2024-04-09T08:11:00,axn,43.72
2024-04-09T08:12:00,axn,42.22
2024-04-09T08:13:00,axn,42.36
2024-04-09T08:14:00,axn,43.00
2024-04-09T08:15:00,axn,43.38
2024-04-09T08:16:00,axn,44.33
2024-04-09T08:17:00,axn,44.80
2024-04-09T08:18:00,axn,44.69
2024-04-09T08:19:00,axn,44.63
2024-04-09T08:20:00,axn,44.68
2024-04-09T08:21:00,axn,44.07
2024-04-09T08:22:00,axn,44.23
2024-04-09T08:23:00,axn,44.65
2024-04-09T08:24:00,axn,44.84
2024-04-09T08:25:00,axn,44.65
2024-04-09T08:26:00,axn,44.50
2024-04-09T08:27:00,axn,44.93
2024-04-09T08:28:00,axn,44.61
2024-04-09T08:29:00,axn,43.72
2024-04-09T08:30:00,axn,59.28
2024-04-09T08:31:00,axn,58.72
2024-04-09T08:32:00,axn,62.97
2024-04-09T08:33:00,axn,58.25
2024-04-09T08:34:00,axn,61.31
2024-04-09T08:35:00,axn,57.82
2024-04-09T08:36:00,axn,43.84
2024-04-09T08:37:00,axn,43.88
2024-04-09T08:38:00,axn,44.26
2024-04-09T08:39:00,axn,57.63
2024-04-09T08:40:00,axn,43.58
2024-04-09T08:41:00,axn,43.79
2024-04-09T08:42:00,axn,43.81
2024-04-09T08:43:00,axn,44.48
2024-04-09T08:44:00,axn,43.73
2024-04-09T08:45:00,axn,44.36
2024-04-09T08:46:00,axn,44.15
2024-04-09T08:47:00,axn,43.57
2024-04-09T08:48:00,axn,44.07
2024-04-09T08:49:00,axn,43.79
2024-04-09T08:50:00,axn,44.21
2024-04-09T08:51:00,axn,44.82
2024-04-09T08:52:00,axn,44.70
2024-04-09T08:53:00,axn,44.40
2024-04-09T08:54:00,axn,45.07
2024-04-09T08:55:00,axn,44.48
2024-04-09T08:56:00,axn,44.58
2024-04-09T08:57:00,axn,44.48
2024-04-09T08:58:00,axn,45.05
2024-04-09T08:59:00,axn,49.28
2024-04-09T09:00:00,axn,49.27
2024-04-09T09:01:00,axn,44.79
2024-04-09T09:02:00,axn,44.81
2024-04-09T09:03:00,axn,44.80
2024-04-09T09:04:00,axn,45.01
2024-04-09T09:05:00,axn,46.08
2024-04-09T09:06:00,axn,44.99
2024-04-09T09:07:00,axn,52.91
2024-04-09T09:08:00,axn,45.02
2024-04-09T09:09:00,axn,45.22
2024-04-09T09:10:00,axn,45.26
2024-04-09T09:11:00,axn,45.04
2024-04-09T09:12:00,axn,45.14
2024-04-09T09:13:00,axn,45.47
2024-04-09T09:14:00,axn,44.96
2024-04-09T09:15:00,axn,45.63
2024-04-09T09:16:00,axn,45.51
2024-04-09T09:17:00,axn,45.51
2024-04-09T09:18:00,axn,45.27
2024-04-09T09:19:00,axn,44.41
2024-04-09T09:20:00,axn,44.15
2024-04-09T09:21:00,axn,44.81
2024-04-09T09:22:00,axn,49.49
2024-04-09T09:23:00,axn,49.56
2024-04-09T09:24:00,axn,45.88
2024-04-09T09:25:00,axn,44.91
2024-04-09T09:26:00,axn,45.19
2024-04-09T09:27:00,axn,44.91
2024-04-09T09:28:00,axn,44.87
2024-04-09T09:29:00,axn,44.75
2024-04-09T09:30:00,axn,44.55
2024-04-09T09:31:00,axn,44.48
2024-04-09T09:32:00,axn,45.15
2024-04-09T09:33:00,axn,44.86
2024-04-09T09:34:00,axn,45.01
2024-04-09T09:35:00,axn,46.81
2024-04-09T09:36:00,axn,45.40
2024-04-09T09:37:00,axn,44.68
2024-04-09T09:38:00,axn,44.27
2024-04-09T09:39:00,axn,44.34
2024-04-09T09:40:00,axn,49.74
2024-04-09T09:41:00,axn,44.72
2024-04-09T09:42:00,axn,44.72
2024-04-09T09:43:00,axn,53.12
2024-04-09T09:44:00,axn,53.71
2024-04-09T09:45:00,axn,53.85
2024-04-09T09:46:00,axn,53.89
2024-04-09T09:47:00,axn,59.18
2024-04-09T09:48:00,axn,55.05
2024-04-09T09:49:00,axn,54.12
2024-04-09T09:50:00,axn,53.99
2024-04-09T09:51:00,axn,54.02
2024-04-09T09:52:00,axn,54.20
2024-04-09T09:53:00,axn,54.82
2024-04-09T09:54:00,axn,54.32
2024-04-09T09:55:00,axn,54.17
2024-04-09T09:56:00,axn,54.25
2024-04-09T09:57:00,axn,53.89
2024-04-09T09:58:00,axn,54.08
2024-04-09T09:59:00,axn,54.01
2024-04-09T10:00:00,axn,54.66
2024-04-09T10:01:00,axn,54.71
2024-04-09T10:02:00,axn,54.41
2024-04-09T10:03:00,axn,54.44
2024-04-09T10:04:00,axn,54.95
2024-04-09T10:05:00,axn,53.74
2024-04-09T10:06:00,axn,53.94
2024-04-09T10:07:00,axn,54.13
2024-04-09T10:08:00,axn,55.00
2024-04-09T10:09:00,axn,53.51
2024-04-09T10:10:00,axn,53.57
2024-04-09T10:11:00,axn,53.67
2024-04-09T10:12:00,axn,58.18
2024-04-09T10:13:00,axn,58.18
2024-04-09T10:14:00,axn,53.77
2024-04-09T10:15:00,axn,53.73
2024-04-09T10:16:00,axn,53.62
2024-04-09T10:17:00,axn,53.75
2024-04-09T10:18:00,axn,53.77
2024-04-09T10:19:00,axn,53.33
2024-04-09T10:20:00,axn,54.07
2024-04-09T10:21:00,axn,53.57
2024-04-09T10:22:00,axn,56.42
2024-04-09T10:23:00,axn,54.17
2024-04-09T10:24:00,axn,53.90
2024-04-09T10:25:00,axn,54.06
2024-04-09T10:26:00,axn,53.70
2024-04-09T10:27:00,axn,54.13
2024-04-09T10:28:00,axn,54.21
2024-04-09T10:29:00,axn,54.40
2024-04-09T10:30:00,axn,53.80
2024-04-09T10:31:00,axn,53.68
2024-04-09T10:32:00,axn,53.88
2024-04-09T10:33:00,axn,53.54
2024-04-09T10:34:00,axn,54.18
2024-04-09T10:35:00,axn,53.74
2024-04-09T10:36:00,axn,53.35
2024-04-09T10:37:00,axn,53.58
2024-04-09T10:38:00,axn,53.05
2024-04-09T10:39:00,axn,53.24
2024-04-09T10:40:00,axn,53.50
2024-04-09T10:41:00,axn,53.64
2024-04-09T10:42:00,axn,58.17
2024-04-09T10:43:00,axn,53.94
2024-04-09T10:44:00,axn,53.76
2024-04-09T10:45:00,axn,54.10
2024-04-09T10:46:00,axn,53.64
2024-04-09T10:47:00,axn,54.16
2024-04-09T10:48:00,axn,53.77
2024-04-09T10:49:00,axn,53.63
2024-04-09T10:50:00,axn,54.43
2024-04-09T10:51:00,axn,53.23
2024-04-09T10:52:00,axn,53.89
2024-04-09T10:53:00,axn,53.52
2024-04-09T10:54:00,axn,53.16
2024-04-09T10:55:00,axn,53.94
2024-04-09T10:56:00,axn,53.81
2024-04-09T10:57:00,axn,53.52
2024-04-09T10:58:00,axn,54.05
2024-04-09T10:59:00,axn,54.11
2024-04-09T11:00:00,axn,52.58
2024-04-09T11:01:00,axn,62.36
2024-04-09T11:02:00,axn,63.48
2024-04-09T11:03:00,axn,61.63
2024-04-09T11:04:00,axn,61.79
2024-04-09T11:05:00,axn,62.34
2024-04-09T11:06:00,axn,52.44
2024-04-09T11:07:00,axn,53.55
2024-04-09T11:08:00,axn,58.10
2024-04-09T11:09:00,axn,58.74
2024-04-09T11:10:00,axn,53.20
2024-04-09T11:11:00,axn,52.55
2024-04-09T11:12:00,axn,52.71
2024-04-09T11:13:00,axn,57.39
2024-04-09T11:14:00,axn,52.99
2024-04-09T11:15:00,axn,54.51
2024-04-09T11:16:00,axn,53.73
2024-04-09T11:17:00,axn,54.18
2024-04-09T11:18:00,axn,53.62
2024-04-09T11:19:00,axn,45.39
2024-04-09T11:20:00,axn,45.34
2024-04-09T11:21:00,axn,45.68
2024-04-09T11:22:00,axn,45.85
2024-04-09T11:23:00,axn,45.93
2024-04-09T11:24:00,axn,46.19
2024-04-09T11:25:00,axn,45.44
2024-04-09T11:26:00,axn,45.32
2024-04-09T11:27:00,axn,45.48
2024-04-09T11:28:00,axn,45.95
2024-04-09T11:29:00,axn,45.79
2024-04-09T11:30:00,axn,45.93
2024-04-09T11:31:00,axn,45.72
2024-04-09T11:32:00,axn,45.65
2024-04-09T11:33:00,axn,45.76
2024-04-09T11:34:00,axn,46.53
2024-04-09T11:35:00,axn,45.73
2024-04-09T11:36:00,axn,46.20
2024-04-09T11:37:00,axn,46.66
2024-04-09T11:38:00,axn,46.60
2024-04-09T11:39:00,axn,50.58
2024-04-09T11:40:00,axn,50.33
2024-04-09T11:41:00,axn,45.51
2024-04-09T11:42:00,axn,46.14
2024-04-09T11:43:00,axn,44.94
2024-04-09T11:44:00,axn,45.29
2024-04-09T11:45:00,axn,44.80
2024-04-09T11:46:00,axn,59.77
2024-04-09T11:47:00,axn,60.34
2024-04-09T11:48:00,axn,60.18
2024-04-09T11:49:00,axn,60.67
2024-04-09T11:50:00,axn,60.21
2024-04-09T11:51:00,axn,59.27
2024-04-09T11:52:00,axn,44.61
2024-04-09T11:53:00,axn,44.61
2024-04-09T11:54:00,axn,44.55
2024-04-09T11:55:00,axn,45.10
2024-04-09T11:56:00,axn,44.76
2024-04-09T11:57:00,axn,45.00
2024-04-09T11:58:00,axn,44.73
2024-04-09T11:59:00,axn,45.02
2024-04-09T12:00:00,axn,45.69
2024-04-09T12:01:00,axn,45.58
2024-04-09T12:02:00,axn,45.30
2024-04-09T12:03:00,axn,48.73
2024-04-09T12:04:00,axn,44.49
2024-04-09T12:05:00,axn,44.74
2024-04-09T12:06:00,axn,44.25
2024-04-09T12:07:00,axn,44.37
2024-04-09T12:08:00,axn,44.84
2024-04-09T12:09:00,axn,45.09
2024-04-09T12:10:00,axn,46.34
2024-04-09T12:11:00,axn,45.58
2024-04-09T12:12:00,axn,45.77
2024-04-09T12:13:00,axn,61.78
2024-04-09T12:14:00,axn,44.70
2024-04-09T12:15:00,axn,45.22
2024-04-09T12:16:00,axn,45.59
2024-04-09T12:17:00,axn,48.54
2024-04-09T12:18:00,axn,45.51
2024-04-09T12:19:00,axn,45.78
2024-04-09T12:20:00,axn,45.63
2024-04-09T12:21:00,axn,45.70
2024-04-09T12:22:00,axn,45.14
2024-04-09T12:23:00,axn,49.72
2024-04-09T12:24:00,axn,49.55
2024-04-09T12:25:00,axn,45.78
2024-04-09T12:26:00,axn,46.12
2024-04-09T12:27:00,axn,45.55
2024-04-09T12:28:00,axn,45.13
2024-04-09T12:29:00,axn,45.21
2024-04-09T12:30:00,axn,44.77
2024-04-09T12:31:00,axn,44.23
2024-04-09T12:32:00,axn,44.39
2024-04-09T12:33:00,axn,44.27
2024-04-09T12:34:00,axn,44.27
2024-04-09T12:35:00,axn,43.67
2024-04-09T12:36:00,axn,43.77
2024-04-09T12:37:00,axn,44.46
2024-04-09T12:38:00,axn,44.42
2024-04-09T12:39:00,axn,44.00
2024-04-09T12:40:00,axn,44.74
2024-04-09T12:41:00,axn,43.66
2024-04-09T12:42:00,axn,43.34
2024-04-09T12:43:00,axn,48.47
2024-04-09T12:44:00,axn,63.86
2024-04-09T12:45:00,axn,44.29
2024-04-09T12:46:00,axn,43.73
2024-04-09T12:47:00,axn,43.45
2024-04-09T12:48:00,axn,59.09
2024-04-09T12:49:00,axn,43.88
2024-04-09T12:50:00,axn,43.56
2024-04-09T12:51:00,axn,43.37
2024-04-09T12:52:00,axn,42.92
2024-04-09T12:53:00,axn,42.83
2024-04-09T12:54:00,axn,42.81
2024-04-09T12:55:00,axn,43.33
2024-04-09T12:56:00,axn,43.03
2024-04-09T12:57:00,axn,43.04
2024-04-09T12:58:00,axn,42.79
2024-04-09T12:59:00,axn,43.63
2024-04-09T13:00:00,axn,43.92
2024-04-09T13:01:00,axn,42.94
2024-04-09T13:02:00,axn,43.18
2024-04-09T13:03:00,axn,42.97
2024-04-09T13:04:00,axn,44.18
2024-04-09T13:05:00,axn,42.88
2024-04-09T13:06:00,axn,42.90
2024-04-09T13:07:00,axn,42.72
2024-04-09T13:08:00,axn,47.99
2024-04-09T13:09:00,axn,43.27
2024-04-09T13:10:00,axn,42.48
2024-04-09T13:11:00,axn,42.28
2024-04-09T13:12:00,axn,42.41
2024-04-09T13:13:00,axn,42.44
2024-04-09T13:14:00,axn,42.98
2024-04-09T13:15:00,axn,43.64
2024-04-09T13:16:00,axn,43.49
2024-04-09T13:17:00,axn,43.85
2024-04-09T13:18:00,axn,43.12